Other Public Products
Issued by NWS Grand Forks, ND

Home | Current Version | Previous Version | Graphics & Text | Print | Product List | Glossary On
Versions: 1 2 3 4 5 6 7 8 9 10 11 12 13 14 15 16 17 18 19 20 21 22 23 24 25 26 27 28 29 30 31 32 33 34 35 36 37 38 39 40 41 42 43 44 45 46 47 48 49 50
000
FPUS83 KFGF 310110
OPUFGF
PRAIRIE TO PINES WEATHER ROUNDUP
NATIONAL WEATHER SERVICE EASTERN NORTH DAKOTA/GRAND FORKS ND
800 PM CDT THU OCT 30 2014

 **SATELLITE DATA USED TO AUGMENT SKY COVER AT AUTOMATED STATIONS**
 *****  WEATHER ACROSS EASTERN NORTH DAKOTA  *****

CITY           SKY/WX    TMP DP  RH WIND       PRES   REMARKS
GRAND FORKS    CLEAR     30  21  69 N10       30.50R WCI  21
GRAND FORKS AF CLEAR     29  19  66 N9        30.51R WCI  20
GRAND CITY NWS   N/A     30 N/A N/A N6          N/A  WCI  24
BUXTON         NOT AVBL
DEVILS LAKE    CLEAR     27  12  54 N9        30.50R WCI  17
FARGO          CLEAR     32  21  64 N15       30.46R WCI  22
WAHPETON ARPT  FAIR      32  21  64 N13G20    30.45R WCI  22
$$

 *****  WEATHER ACROSS CENTRAL AND WESTERN NORTH DAKOTA  *****

CITY           SKY/WX    TMP DP  RH WIND       PRES   REMARKS
JAMESTOWN      NOT AVBL
BISMARCK       CLOUDY    34  25  69 NE10      30.53R
MINOT          CLEAR     23  17  78 W6        30.54R WCI  16
MINOT AFB      CLEAR     18  15  90 W6        30.54R WCI  10
GARRISON         N/A     30  22  72 NE5       30.53R
WILLISTON      CLOUDY    36  29  75 E8        30.50R
DICKINSON      CLOUDY    33  28  81 E9        30.46R
HETTINGER      CLOUDY    34  29  82 E9        30.48R
$$

 *****  OTHER OBSERVATIONS NORTHEAST NORTH DAKOTA  *****

CITY           SKY/WX    TMP DP  RH WIND       PRES   REMARKS
WALHALLA       FAIR      28  18  64 N9        30.55R WCI  20
LANGDON        FAIR      25  16  68 N12       30.52R WCI  14
CAVALIER       FAIR      30  18  59 N9        30.54R WCI  22
GRAFTON        FAIR      28  18  64 N10       30.52R WCI  19
CANDO          FAIR      23  18  80 N7        30.53R WCI  15
FORT TOTTEN    NOT AVBL
ROLLA          FAIR      23  14  68 N9        30.52S WCI  13
RUGBY          FAIR      23  18  80 N5        30.53R WCI  17
 ***** THE ABOVE OBSERVATIONS ARE NON NWS ARE NOT QUALITY
        CONTROLLED AND MAY MIS-REPORT RAIN FOR SNOW...
$$

 *****  OTHER OBSERVATIONS SOUTHEAST NORTH DAKOTA *****

CITY           SKY/WX    TMP DP  RH WIND       PRES   REMARKS
COOPERSTOWN    NOT AVBL
VALLEY CITY    FAIR      28  21  74 N9        30.48R WCI  20
OAKES            N/A     32  27  80 NW9       30.49R WCI  24
GWINNER        CLEAR     32  23  69 N9        30.49R WCI  24
SHEYENNE NWR     N/A     31  20  63 N6        29.95S
BUFFALO        NOT AVBL
WYNDMERE         N/A     28  23  80 NW6         N/A  WCI  22
 ***** THE ABOVE OBSERVATIONS ARE NON NWS ARE NOT QUALITY
       CONTROLLED AND MAY MIS-REPORT RAIN FOR SNOW...
$$

  *****  WEATHER ACROSS NORTHERN MINNESOTA  *****

CITY           SKY/WX    TMP DP  RH WIND       PRES   REMARKS
FLAG ISLAND    PTCLDY    32  21  64 N24G30    30.44R WCI  19
WARROAD        CLEAR     30  18  59 N12G17    30.45R WCI  21
ROSEAU         CLEAR     28  19  69 N9        30.46R WCI  20
HALLOCK        CLEAR     28  19  69 N12       30.51R WCI  18
THF RVR FALLS  CLEAR     28  19  69 N10       30.46R WCI  19
HALSTAD          N/A     28  18  64 N10         N/A  WCI  19
FOSSTON        CLEAR     27  21  80 N13       30.44R WCI  16
BAUDETTE       CLOUDY    32  18  56 N22G32    30.40R WCI  19
WASKISH        CLEAR     28  18  64 N12G21    30.40R WCI  18
CROOKSTON      NOT AVBL
$$
  *****  WEATHER ACROSS CENTRAL AND WEST MINNESOTA  *****

CITY           SKY/WX    TMP DP  RH WIND       PRES   REMARKS
BEMIDJI        PTCLDY    29  15  55 N13G20    30.38R WCI  19
PARK RAPIDS    MOCLDY    32  18  56 N20G26    30.36R WCI  20
WADENA         CLEAR     30  18  59 N14G20    30.36R WCI  20
DETROIT LAKES  CLEAR     32  25  74 N15G23    30.41R WCI  22
MOORHEAD       CLEAR     32  25  74 N14       30.46R WCI  22
FERGUS FALLS   CLEAR     30  19  64 N14       30.44R WCI  20
ELBOW LAKE     CLOUDY    32  21  64 N17G24    30.40R WCI  21
MORRIS MN      NOT AVBL
STAPLES        PTCLDY    30  16  55 N16G24    30.34R WCI  19
WHEATON        MOCLDY    30  21  69 NW14      30.46R WCI  20
$$
  *****  WEATHER ELSEWHERE ACROSS MINNESOTA  *****

CITY           SKY/WX    TMP DP  RH WIND       PRES   REMARKS
DULUTH         CLOUDY    31  20  63 N20G32    30.21R WCI  19
INTRNTL FALLS  PTCLDY    28  19  69 N15G31    30.35R WCI  16
ELY            CLOUDY    27  23  86 NW8G23    30.23R WCI  18
CLOQUET        FAIR      32  14  47 NW25G38   30.24R WCI  19
BRAINERD       PTCLDY    33  14  45 N29G40    30.32R WCI  19
HIBBING        CLEAR     29  17  61 N22G38    30.28R WCI  15
ALEXANDRIA     PTCLDY    33  20  58 N20G29    30.37R WCI  21
SAINT CLOUD    CLOUDY    40  22  48 N18G32    30.28R
MINNEAPOLIS    CLOUDY    42  28  57 NW22G31   30.23R
$$

  *****  WEATHER ACROSS SOUTH DAKOTA  *****

CITY           SKY/WX    TMP DP  RH WIND       PRES   REMARKS
SIOUX FALLS    CLOUDY    38  30  73 N24G36    30.36R
BROOKINGS      NOT AVBL
WATERTOWN      CLOUDY    33  25  72 N18G25    30.40R WCI  22
HURON          CLOUDY    37  28  70 N17G26    30.45R
SISSETON         N/A     34  23  64 N16G36    30.45R WCI  24
ABERDEEN       CLOUDY    35  23  61 N21G29    30.49R WCI  24
MITCHELL       CLOUDY    39  30  70 N20       30.43R
PIERRE         CLOUDY    37  30  75 N12       30.47R
MOBRIDGE       CLOUDY    37  29  72 N14       30.47R
RAPID CITY     CLEAR     33  29  85 E7        30.44R
$$

  *****  SOME WEATHER IN NEARBY STATES *****

CITY           SKY/WX    TMP DP  RH WIND       PRES   REMARKS
GLASGOW MT     CLOUDY    35  29  78 SE20      30.39F WCI  24
GREAT FALLS MT MOCLDY    50  33  52 E9        30.11F
CHEYENNE WY    CLEAR     45  26  47 E7        30.38R
SCOTTSBLUFF NE CLEAR     44  31  60 NE9       30.35R
OMAHA NE       PTCLDY    49  39  68 NW21G26   30.23R
DES MOINES IA  CLOUDY    55  37  50 N17       30.12R
DAVENPORT IA   CLOUDY    48  37  65 CALM      30.09S
CHICAGO IL     CLOUDY    48  36  63 W6        30.05F
EAU CLAIRE WI  CLOUDY    43  31  62 NW12      30.14R
LA CROSSE WI   CLOUDY    47  39  74 NW8       30.11R
$$

  *****  SOME NATIONAL WEATHER *****

CITY           SKY/WX    TMP DP  RH WIND       PRES   REMARKS
LA GUARDIA NY  PTCLDY    51  36  56 NW16G22   30.01S
RALEIGH NC     CLEAR     49  44  83 CALM      29.99F
ATLANTA GA     CLEAR     55  39  54 NW6       29.99S
NEW ORLEANS LA CLEAR     62  46  55 W5        30.03F
OKLAHOMA CITY  CLEAR     63  36  36 N6        30.16R
ALBUQUERQUE NM PTCLDY    65  21  18 E6        30.28R
SALT LAKE CITY MOCLDY    55  43  63 CALM      30.13S
LOS ANGELES CA CLOUDY    67  61  81 W16       29.95R
BOISE ID       CLOUDY    61  40  45 W3        29.94F
SEATTLE WA     CLOUDY    56  54  93 S3        29.76S
$$

*** WEATHER ACROSS MANITOBA...SASKATCHEWAN AND ONTARIO ***
                ***ONTARIO***

CITY           SKY/WX    TMP DP  RH WIND       PRES   REMARKS
GERALDTON      LGT SNOW  28  25  86 N12       30.14R WCI  18
THUNDER BAY    CLOUDY    32  27  80 N12G18    30.16R WCI  23
SIOUX LOOKOUT  FLURRIES  27  18  69 N16G26    30.35R WCI  14
TORONTO        MOCLDY    43  34  70 W5        30.04F
BIG TROUT LK   FLURRIES  27  25  93 N13G22    30.37R WCI  16
PICKLE LAKE    FLURRIES  25  21  86 N8G21     30.32R WCI  16
DRYDEN         FLURRIES  27  19  74 N15G28    30.36R WCI  15
KENORA         MOCLDY    27  16  63 N10G25    30.43R WCI  17
$$
                *** MANITOBA***

CITY           SKY/WX    TMP DP  RH WIND       PRES   REMARKS
BRANDON        CLEAR     21  16  79 NE9       30.56R WCI  11
DAUPHIN        CLEAR     25  21  86 SE2       30.59S
ISLAND LAKE    MOCLDY    25  19  80 NW8       30.52R WCI  16
PILOT MOUND      N/A     25  16  68 N8          N/A  WCI  16
THE PAS        CLEAR     25  18  74 SE6       30.54S WCI  18
THOMPSON       CLEAR     16  14  93 CALM      30.52S
WINNIPEG       PTCLDY    25  16  68 N12       30.57R WCI  14
LYNN LAKE      CLEAR     21  18  86 S3        30.44F
CHURCHILL      FLURRIES  19  16  86 W14       30.48R WCI   6
GILLAM         FLURRIES  21  14  73 N12       30.51R WCI   9
$$
                ***SASKATCHEWAN***

CITY           SKY/WX    TMP DP  RH WIND       PRES   REMARKS
ESTEVAN        PTCLDY    25  21  86 E6        30.53R WCI  18
KINDERSLEY     NOT AVBL
LLOYDMINSTER   CLOUDY    30  27  86 SE22G32   30.21F WCI  17
PRINCE ALBERT  CLEAR     27  21  80 SE8       30.44F WCI  18
REGINA         PTCLDY    25  23  93 SE12      30.49F WCI  14



USA.gov is the U.S. government's official web portal to all federal, state and local government web resources and services.